| time (UTC) | temp F | wind direction | speed MPH | gust MPH | rain 1hr in | rain 24hr in | rain mn in | humidity % | barometer mb |
| 20260505070005 | 50 | 0 | 2.0 | 0.0 | 0.00 | 0.00 | 0.00 | 76 | 1013.0 |
| 20260505064503 | 50 | 0 | 2.0 | 0.0 | 0.00 | 0.00 | 0.00 | 76 | 1013.0 |
| 20260505063004 | 48 | 0 | 2.0 | 0.0 | 0.00 | 0.00 | 0.00 | 76 | 1013.0 |
| 20260505061504 | 48 | 0 | 2.0 | 0.0 | 0.00 | 0.00 | 0.00 | 76 | 1013.0 |
| 20260505054504 | 48 | 130 | 3.0 | 0.0 | 0.00 | 0.00 | 0.00 | 81 | 1013.0 |
| 20260505040005 | 52 | 0 | 1.0 | 0.0 | 0.00 | 0.00 | 0.00 | 66 | 1013.0 |
| 20260505033004 | 52 | 0 | 1.0 | 0.0 | 0.00 | 0.00 | 0.00 | 62 | 1013.0 |
| 20260505031504 | 52 | 0 | 1.0 | 0.0 | 0.00 | 0.00 | 0.00 | 62 | 1013.0 |
| 20260505024504 | 54 | 300 | 5.0 | 0.0 | 0.00 | 0.00 | 0.00 | 58 | 1013.0 |
| 20260505023003 | 54 | 340 | 6.0 | 0.0 | 0.00 | 0.00 | 0.00 | 58 | 1013.0 |
| 20260505021503 | 54 | 340 | 6.0 | 0.0 | 0.00 | 0.00 | 0.00 | 58 | 1013.0 |
| 20260505020005 | 55 | 290 | 8.0 | 0.0 | 0.00 | 0.00 | 0.00 | 54 | 1013.0 |
| 20260505014504 | 55 | 290 | 8.0 | 0.0 | 0.00 | 0.00 | 0.00 | 54 | 1013.0 |
| 20260505011505 | 55 | 270 | 5.0 | 0.0 | 0.00 | 0.00 | 0.00 | 54 | 1013.0 |
| 20260505004504 | 55 | 280 | 8.0 | 0.0 | 0.00 | 0.00 | 0.00 | 50 | 1013.0 |
| 20260505001504 | 55 | 250 | 3.0 | 0.0 | 0.00 | 0.00 | 0.00 | 54 | 1013.0 |
| 20260504230004 | 57 | 260 | 5.0 | 0.0 | 0.00 | 0.00 | 0.00 | 50 | 1013.0 |
| 20260504224504 | 57 | 260 | 5.0 | 0.0 | 0.00 | 0.00 | 0.00 | 50 | 1013.0 |
| 20260504223005 | 57 | 250 | 7.0 | 0.0 | 0.00 | 0.00 | 0.00 | 50 | 1013.0 |
| 20260504221504 | 57 | 250 | 7.0 | 0.0 | 0.00 | 0.00 | 0.00 | 50 | 1013.0 |
| 20260504220005 | 59 | 260 | 7.0 | 0.0 | 0.00 | 0.00 | 0.00 | 47 | 1013.0 |
| 20260504214504 | 59 | 260 | 7.0 | 0.0 | 0.00 | 0.00 | 0.00 | 47 | 1013.0 |
| 20260504213004 | 59 | 270 | 1.0 | 0.0 | 0.00 | 0.00 | 0.00 | 47 | 1013.0 |
| 20260504211505 | 59 | 270 | 1.0 | 0.0 | 0.00 | 0.00 | 0.00 | 47 | 1013.0 |
| 20260504204504 | 59 | 270 | 12.0 | 0.0 | 0.00 | 0.00 | 0.00 | 51 | 1013.0 |
| 20260504203004 | 59 | 280 | 1.0 | 0.0 | 0.00 | 0.00 | 0.00 | 51 | 1012.0 |
| 20260504200004 | 61 | 280 | 12.0 | 0.0 | 0.00 | 0.00 | 0.00 | 48 | 1012.0 |
| 20260504194504 | 61 | 280 | 12.0 | 0.0 | 0.00 | 0.00 | 0.00 | 48 | 1012.0 |
| 20260504193004 | 63 | 290 | 13.0 | 0.0 | 0.00 | 0.00 | 0.00 | 45 | 1012.0 |
| 20260504191505 | 63 | 290 | 13.0 | 0.0 | 0.00 | 0.00 | 0.00 | 45 | 1012.0 |
| 20260504184503 | 64 | 280 | 15.0 | 0.0 | 0.00 | 0.00 | 0.00 | 42 | 1012.0 |
| 20260504180005 | 66 | 290 | 13.0 | 0.0 | 0.00 | 0.00 | 0.00 | 39 | 1011.0 |
| 20260504174504 | 66 | 290 | 13.0 | 0.0 | 0.00 | 0.00 | 0.00 | 39 | 1011.0 |
| 20260504173004 | 64 | 270 | 12.0 | 0.0 | 0.00 | 0.00 | 0.00 | 42 | 1011.0 |
| 20260504171506 | 64 | 270 | 12.0 | 0.0 | 0.00 | 0.00 | 0.00 | 42 | 1011.0 |
| 20260504081504 | 55 | 160 | 3.0 | 0.0 | 0.00 | 0.00 | 0.00 | 71 | 1013.0 |